Temperature
21 21 21 21 18 16 18 19 19 19 18 19 19 18 18 17 17 17 17 17 17 17 17 17 17 17 17 17 17 17 17 17 17 17 17 17 17 17 17 17 17 17 17 17 17 18 18 18 18
21 21 21 20 16 17 18 19 19 19 19 19 19 18 18 17 17 18 17 17 17 17 17 17 17 17 17 17 17 17 17 17 17 17 17 17 17 17 17 17 17 17 17 17 17 17 18 18 18
21 21 21 17 17 17 19 19 19 19 19 19 19 18 18 18 18 18 17 17 17 17 17 17 17 17 17 17 17 17 17 17 17 17 17 17 17 17 17 17 17 17 17 17 17 17 17 17 17
21 21 20 17 18 18 19 19 19 19 19 19 18 18 18 18 18 18 18 17 17 17 17 17 17 17 17 17 16 17 17 16 16 16 16 17 17 17 17 17 17 17 17 17 17 17 17 17 17
21 21 17 17 18 19 19 19 20 19 19 19 18 17 18 18 18 18 18 17 17 17 17 17 17 17 17 16 16 16 16 16 16 16 16 17 17 17 17 17 17 17 17 17 17 17 17 17 17
21 18 17 17 18 19 19 20 20 19 19 19 18 17 18 18 18 18 18 17 17 17 17 17 17 17 16 16 16 16 16 16 16 16 16 16 16 16 16 16 16 16 16 16 16 17 17 17 17
20 16 17 18 18 19 20 20 19 19 18 19 19 17 18 18 18 18 18 17 17 17 17 17 17 17 16 16 16 16 16 16 16 16 16 16 16 16 16 16 16 16 16 16 16 16 16 17 16
21 17 18 18 18 19 20 20 20 20 19 19 19 18 18 18 18 18 17 17 17 17 17 17 17 17 16 16 16 16 16 16 16 16 16 16 16 16 16 16 16 16 16 16 16 16 16 16 16
21 17 17 18 19 19 20 20 20 20 19 19 19 19 19 18 18 18 18 17 17 17 17 17 17 16 16 16 16 16 16 16 16 16 16 16 16 16 16 16 16 16 16 16 16 16 16 16 16
20 17 19 19 19 19 20 20 20 20 19 19 19 19 19 19 18 18 18 18 17 17 17 17 17 17 16 16 16 16 16 16 16 16 16 16 16 16 16 16 16 16 16 16 16 16 16 16 16
20 18 19 20 20 20 20 20 20 19 18 19 19 19 19 19 18 18 18 18 18 17 17 17 17 17 16 16 16 16 16 16 16 16 16 16 16 16 16 16 16 16 16 16 15 15 16 16 16
20 20 20 21 21 21 20 20 20 20 20 20 20 20 19 19 19 18 18 18 18 17 17 17 17 17 17 16 16 16 16 16 16 16 16 16 16 16 16 16 15 15 15 15 15 15 15 15 15
20 20 21 21 21 21 20 20 20 20 21 20 20 19 19 19 19 19 18 18 18 18 17 17 17 17 17 16 16 16 16 16 16 16 16 16 16 16 16 15 15 15 15 15 15 15 15 15 15
20 20 20 21 21 21 20 20 20 20 20 20 20 19 19 19 19 19 18 18 18 18 17 17 17 17 17 17 16 16 16 16 16 16 16 16 16 15 15 15 15 15 15 15 15 15 15 15 15
21 20 20 20 20 20 20 19 19 20 20 20 19 19 19 19 19 19 19 19 18 18 18 17 17 17 17 17 16 16 16 16 16 16 16 16 15 15 15 15 15 15 15 15 15 15 15 15 14
20 19 19 20 20 20 20 19 19 20 20 19 19 19 19 19 19 19 19 19 18 18 18 17 17 17 17 16 16 16 16 16 16 16 16 15 15 15 15 15 15 15 15 15 15 15 15 14 14
19 18 19 19 20 20 19 18 19 20 19 19 19 19 19 19 19 19 19 19 18 18 18 18 17 17 17 17 16 16 16 16 16 16 16 15 15 15 15 15 15 14 14 14 14 14 14 14 14
19 19 19 19 19 19 18 18 18 19 19 19 19 19 19 19 19 19 19 19 18 18 18 18 17 17 17 17 16 16 16 16 16 16 15 15 15 15 15 15 15 14 14 14 14 14 14 14 14
19 19 19 19 19 19 18 18 18 18 18 18 18 19 19 19 19 19 19 19 18 18 18 18 17 17 17 17 16 16 16 16 16 15 15 15 15 15 15 15 14 14 14 14 14 14 14 14 14
20 19 19 19 19 19 18 18 18 17 18 18 18 18 19 19 19 19 19 19 19 18 18 18 17 17 17 17 16 16 16 16 15 15 15 15 15 15 15 15 14 14 14 14 14 14 14 14 14
20 19 19 19 19 19 19 18 17 17 18 18 18 19 19 19 19 19 19 19 18 18 18 18 17 17 17 17 16 16 16 16 15 15 15 15 15 15 14 14 14 14 14 14 14 14 14 14 14
19 20 20 20 18 17 18 16 17 17 16 17 17 18 18 19 19 19 19 19 18 18 18 18 17 17 17 16 16 16 16 16 15 15 15 15 14 14 14 14 14 14 14 14 14 13 13 14 13
20 20 19 19 18 17 17 17 16 16 17 16 17 18 18 19 19 19 19 18 18 18 18 17 17 17 17 17 16 16 16 16 15 15 15 14 14 14 14 14 14 14 14 14 13 13 13 13 13
20 19 18 16 16 17 17 16 16 16 17 17 17 18 18 18 19 19 18 18 18 18 17 17 17 17 17 16 16 16 16 16 15 15 15 14 14 14 14 14 14 14 14 14 13 13 13 13 13
19 17 17 17 16 16 17 16 16 17 17 17 17 18 18 18 19 18 18 18 18 17 17 17 17 17 16 16 16 16 16 15 15 15 15 14 14 14 14 14 14 14 13 13 13 13 13 13 13
18 18 17 17 16 16 17 16 17 18 18 18 18 18 18 18 18 18 18 18 18 17 17 17 17 16 16 16 16 16 16 15 15 15 15 14 14 14 14 14 13 13 13 13 13 13 13 13 13
18 17 17 16 16 16 16 16 17 18 17 17 17 17 18 18 18 18 18 18 17 17 17 17 17 16 16 16 16 16 15 15 15 15 14 14 14 14 14 14 13 13 13 13 13 13 13 13 13
18 16 15 15 16 16 16 16 16 18 17 16 16 16 17 18 18 18 18 18 17 17 17 17 16 16 16 16 16 16 15 15 15 14 14 14 14 14 14 14 13 13 13 13 13 13 13 13 13
18 17 15 14 15 15 16 16 17 17 17 16 16 17 18 18 18 18 18 17 17 17 17 17 16 16 16 16 16 15 15 15 15 14 14 14 14 14 14 14 13 13 13 13 13 13 13 13 13
18 17 15 16 15 14 14 15 17 16 16 16 16 17 18 18 18 18 17 17 17 17 16 16 16 16 16 16 15 15 15 15 14 14 14 14 14 14 13 13 13 13 13 13 13 13 13 13 13
Wind_Speed
2 4 3 4 6 6 3 2 1 2 3 2 4 5 5 4 2 1 2 1 0 1 2 2 3 4 5 5 5 6 6 7 7 7 7 7 7 6 7 8 8 7 8 8 7 7 7 7 7
2 3 4 5 5 4 2 2 1 1 3 3 4 4 5 3 2 2 0 1 1 1 2 2 4 4 4 5 6 6 6 7 7 7 7 7 7 7 7 8 7 8 8 8 7 7 7 7 7
3 4 4 5 4 3 1 1 2 3 4 2 3 4 3 2 1 2 2 2 2 2 2 2 4 5 5 5 6 6 6 6 6 6 7 7 7 7 8 7 7 7 7 7 7 7 6 6 7
3 5 5 6 5 0 2 2 3 4 3 4 3 3 2 1 2 2 3 3 3 2 2 3 4 5 5 5 6 6 6 6 6 6 7 7 7 7 8 7 7 7 7 7 7 7 7 7 7
4 5 6 4 3 2 1 0 2 4 2 3 3 3 2 4 3 4 4 3 2 1 2 3 4 5 5 6 6 6 6 6 6 7 7 7 7 8 8 8 7 7 7 7 7 7 7 7 7
5 5 5 3 2 2 2 1 3 4 3 3 3 3 1 2 3 3 3 3 2 1 2 3 4 5 5 5 6 6 7 7 7 8 7 7 8 8 8 8 8 7 7 8 7 7 7 7 8
5 5 4 3 1 2 1 2 3 3 3 2 4 3 1 1 1 3 3 3 2 2 2 3 4 5 5 5 5 6 7 7 8 8 7 7 8 8 8 8 7 8 8 8 7 7 7 7 8
5 5 4 2 2 0 0 1 2 3 2 2 4 5 3 3 3 4 4 3 2 2 2 2 3 4 5 6 6 7 7 7 8 8 9 9 9 9 8 8 7 8 8 8 8 8 8 9 9
4 5 3 3 3 1 1 2 2 2 4 2 1 3 3 5 6 5 4 3 2 1 1 1 2 3 4 4 5 6 7 7 8 8 9 9 8 8 8 8 8 9 9 10 11 10 11 11 11
5 4 3 3 4 3 2 2 2 3 3 2 2 3 4 6 6 5 3 2 1 1 1 0 1 2 3 3 4 5 5 6 6 6 7 7 7 8 8 10 10 11 11 12 13 13 12 11 9
4 4 2 1 2 3 3 1 2 5 1 3 4 4 4 5 5 4 3 3 3 1 1 0 0 1 2 2 3 4 4 5 6 6 6 6 7 7 8 8 8 9 10 9 10 11 10 10 9
4 1 2 2 2 2 3 2 2 2 4 4 5 6 5 5 5 4 4 3 2 2 1 1 1 1 1 2 2 3 3 3 3 4 5 5 4 4 5 5 6 7 6 7 7 7 9 9 10
3 1 1 2 3 3 3 2 2 2 1 3 6 6 6 5 4 3 3 3 3 3 2 1 2 2 2 2 1 3 2 2 3 4 4 4 3 3 4 4 5 6 6 6 6 6 7 7 8
2 2 2 2 3 1 3 1 2 2 2 5 6 5 5 5 5 3 3 3 3 3 3 2 2 2 3 2 1 1 2 2 3 3 4 5 4 3 3 4 4 5 6 6 6 6 5 5 6
4 4 4 2 1 1 3 3 2 2 5 4 4 4 4 4 3 4 5 4 4 3 3 3 3 3 3 2 2 2 2 3 3 3 4 5 5 4 4 3 3 4 5 6 6 6 6 5 5
4 4 2 3 0 1 4 3 5 2 5 4 3 3 3 4 4 4 3 3 3 3 3 3 4 4 3 3 2 2 3 3 3 3 4 5 5 5 5 3 3 4 5 5 4 4 5 5 5
4 1 1 4 2 2 3 5 5 3 5 4 4 4 4 4 4 4 3 4 4 4 4 4 4 4 4 3 3 3 4 4 3 4 4 4 5 6 5 4 3 4 4 3 3 4 4 4 4
3 2 2 3 3 2 3 5 5 3 5 6 5 5 4 5 6 4 3 3 3 3 4 4 4 4 4 4 4 3 4 3 3 3 3 4 5 5 5 4 4 4 4 3 3 4 4 3 3
4 3 3 4 2 3 4 6 6 4 4 5 5 5 6 7 5 2 3 3 4 3 4 4 4 4 4 3 2 2 2 1 2 2 3 4 4 5 5 3 3 3 3 3 3 3 4 3 2
4 3 3 3 1 2 3 5 5 3 4 6 6 7 7 5 3 2 2 3 4 4 4 4 4 4 4 3 2 2 2 1 1 1 2 3 3 4 4 3 3 3 3 4 3 3 2 2 2
3 5 4 3 1 2 2 5 5 3 2 2 3 4 4 6 6 4 3 4 4 4 5 5 5 5 4 4 3 3 3 3 2 2 2 1 2 2 3 3 3 3 3 3 2 2 3 2 1
4 4 4 3 2 2 1 3 7 4 3 2 3 3 4 4 4 4 4 4 4 4 4 4 5 4 4 5 5 4 3 2 1 1 0 1 1 2 2 3 3 3 3 3 2 2 2 3 1
5 1 3 2 3 1 1 2 7 2 3 5 4 5 5 5 4 4 4 4 3 3 4 4 5 4 4 4 5 5 3 2 1 1 1 1 1 1 2 2 3 2 2 3 2 2 2 2 2
3 6 6 5 4 1 3 3 6 4 6 5 4 4 5 4 4 4 3 2 2 2 3 4 4 3 3 4 4 5 4 3 3 1 1 0 0 1 0 2 2 2 2 3 2 2 2 1 2
5 5 3 4 3 4 2 2 7 6 6 6 5 5 4 4 4 4 4 3 3 3 3 3 4 3 3 3 3 4 4 4 4 3 3 2 1 1 1 1 1 2 2 3 3 2 2 2 2
3 7 6 3 4 4 1 4 6 5 4 3 3 3 4 4 4 4 5 5 4 4 4 4 4 3 3 3 3 3 3 3 2 3 3 3 2 3 2 2 2 2 3 3 3 2 2 2 2
5 3 5 5 2 2 5 5 6 2 2 2 3 3 4 4 5 4 4 4 4 4 4 5 5 4 4 4 3 3 3 3 3 2 2 2 2 2 2 2 2 2 2 3 3 2 2 2 1
4 8 6 4 3 3 5 4 4 5 3 1 2 3 3 3 3 3 3 4 3 3 3 3 3 4 4 4 3 3 3 3 2 2 2 2 3 2 2 3 3 2 2 3 2 2 2 2 1
3 4 5 4 4 5 3 6 5 6 5 5 5 4 4 4 5 4 3 3 3 2 3 3 3 3 3 3 3 2 2 2 2 2 2 2 2 3 3 3 3 3 3 3 3 2 2 2 2
3 5 7 4 4 4 4 7 5 4 4 5 5 4 4 4 5 4 4 3 3 3 3 3 3 3 4 4 3 3 2 2 2 2 3 2 3 3 3 3 3 3 3 3 3 4 3 3 3
Wind_Direction
87 96 85 61 56 54 48 352 354 46 51 40 59 77 85 74 76 119 283 224 159 19 355 2 52 70 64 62 63 65 73 79 77 78 80 81 85 85 81 85 85 85 84 79 81 84 87 93 94
105 92 59 60 76 71 13 335 64 86 140 135 70 70 72 61 71 119 296 202 102 75 33 39 67 74 68 67 66 66 74 77 76 77 80 82 84 86 83 80 82 82 79 76 76 79 82 89 96
100 57 74 66 80 124 139 284 129 86 87 83 65 54 75 81 111 164 207 154 89 60 38 43 67 71 70 71 68 69 74 77 74 73 76 79 82 84 84 80 77 75 76 77 77 76 81 89 95
80 46 55 68 74 143 173 183 133 113 65 49 84 58 40 17 164 164 137 113 91 49 30 38 64 65 67 70 71 69 69 73 72 71 70 72 78 82 82 85 80 74 74 77 77 75 81 89 92
60 70 61 56 37 353 329 195 121 106 86 58 85 85 19 353 77 112 118 107 100 55 34 37 64 63 66 69 68 68 66 64 67 69 69 70 74 74 75 78 77 74 72 73 76 76 76 82 89
56 66 76 71 15 352 349 47 101 90 93 88 95 96 347 6 95 114 111 104 96 87 56 39 54 62 64 65 69 69 68 66 67 66 66 67 68 66 67 69 69 67 68 70 73 76 78 82 89
94 83 101 117 64 8 30 73 105 114 114 141 138 117 295 323 160 120 105 92 85 74 57 38 30 37 45 51 62 65 68 68 65 62 61 64 64 60 59 59 60 61 61 64 68 76 81 82 84
111 94 84 97 119 300 341 81 97 120 127 120 123 139 205 224 144 101 85 76 74 51 37 32 30 33 32 34 52 63 66 64 59 55 55 59 55 51 52 49 53 57 59 59 66 76 80 79 80
84 79 112 178 167 197 120 91 51 74 97 80 113 163 185 132 113 96 77 57 53 47 10 25 28 25 27 33 50 59 59 56 53 50 50 48 41 37 39 44 50 54 56 58 67 74 74 72 70
76 109 183 193 174 159 113 114 132 85 74 61 49 57 92 109 124 132 143 159 180 246 283 14 30 18 25 40 48 47 53 53 56 56 49 46 44 41 42 43 50 55 56 55 61 66 66 63 58
96 141 168 147 162 142 122 95 101 121 155 196 175 159 128 125 140 159 171 182 208 222 261 175 84 43 54 49 46 44 50 53 53 54 55 54 52 47 41 40 42 49 53 54 54 56 57 60 57
99 124 155 153 145 128 139 130 108 160 214 199 168 150 145 150 171 186 187 189 187 179 219 199 145 90 72 74 57 58 57 58 57 53 61 70 63 52 44 44 45 52 57 59 58 61 60 60 58
88 68 45 117 102 116 111 119 143 239 249 113 121 132 153 166 185 197 184 173 171 186 205 181 145 135 105 81 58 71 61 63 66 63 69 86 85 67 58 53 56 57 63 68 65 63 59 56 54
126 91 56 64 81 79 118 74 103 258 123 117 131 158 176 184 189 180 173 180 187 191 189 171 159 157 121 111 99 79 74 76 74 68 75 87 95 90 74 61 59 58 66 72 72 71 65 58 58
92 72 27 11 63 123 101 15 254 219 125 138 161 180 195 210 197 197 197 190 189 188 174 168 162 137 129 122 109 90 84 88 78 75 82 90 99 100 94 73 60 63 72 76 75 69 66 63 59
63 59 21 300 135 158 117 257 267 177 145 178 198 207 217 234 231 229 210 195 187 169 162 167 153 130 121 114 103 85 78 81 79 80 83 91 98 103 99 83 68 78 76 77 76 70 66 60 60
39 67 265 290 248 146 148 236 265 187 167 198 213 217 218 237 250 243 222 198 186 170 162 151 137 132 124 109 93 81 73 68 71 75 80 90 97 104 103 95 87 88 82 68 78 72 80 75 69
212 205 237 252 261 156 196 248 269 222 191 206 218 221 219 228 240 236 210 182 166 150 147 144 134 126 113 97 83 69 61 52 58 67 77 93 99 104 105 103 95 93 85 71 73 79 72 79 76
162 181 238 255 241 174 223 254 267 241 206 213 221 223 225 233 248 220 187 163 146 141 145 152 142 138 126 109 106 95 74 47 42 53 72 92 104 106 104 104 97 92 97 102 98 94 81 68 71
166 199 254 289 265 169 247 273 272 237 218 214 213 221 227 234 236 207 183 165 163 162 162 160 158 156 150 134 126 123 118 92 61 37 54 78 102 108 117 113 114 106 108 102 100 102 99 73 64
208 197 215 234 7 52 25 319 296 281 257 241 218 213 210 211 213 208 193 184 172 178 180 176 169 163 152 129 109 86 67 49 37 30 26 37 96 108 118 129 124 123 124 132 130 122 116 119 57
236 225 191 177 119 291 75 296 293 282 298 275 246 227 217 211 200 198 193 190 193 197 179 164 160 158 154 142 138 136 135 146 202 198 18 25 71 99 122 131 131 133 131 139 153 129 129 132 123
219 129 128 129 150 3 358 202 289 314 281 270 253 227 218 207 192 186 190 197 194 178 166 161 156 160 161 153 152 148 144 154 140 98 82 52 44 75 109 133 134 141 146 160 166 135 138 139 148
124 75 61 55 77 317 249 184 285 251 239 259 246 224 209 198 189 185 175 153 140 135 145 151 157 170 170 163 158 162 163 157 142 139 145 139 344 356 89 142 145 158 163 176 178 165 151 146 140
84 88 33 3 9 259 251 192 254 261 243 228 221 216 197 182 172 165 153 157 163 155 153 153 160 172 175 170 173 175 175 174 176 181 186 190 223 256 242 188 180 178 186 185 170 160 164 162 154
152 140 158 206 233 279 303 229 256 280 270 228 198 179 154 162 169 177 177 174 176 171 163 159 168 174 174 176 184 179 178 180 189 193 192 197 212 225 215 197 195 192 180 178 168 159 183 181 181
136 159 163 139 171 263 283 284 300 334 20 88 123 132 161 177 179 180 175 176 182 182 182 179 179 177 177 182 185 183 187 190 197 202 201 207 219 221 198 187 193 190 177 175 168 176 202 183 189
139 142 106 124 163 261 293 281 261 282 274 246 176 185 197 184 179 177 177 182 186 188 183 174 173 182 184 183 188 183 186 194 195 184 200 219 226 222 201 194 193 192 184 175 171 186 207 188 213
112 113 116 124 155 165 260 274 238 241 236 224 221 206 197 188 187 186 190 189 178 163 166 175 179 174 177 182 185 180 188 193 194 207 224 224 223 220 209 199 192 192 196 194 186 201 196 198 225
180 168 149 159 215 183 192 265 280 259 244 218 224 219 206 196 192 184 179 174 177 190 192 193 194 189 191 187 178 181 186 186 209 232 237 231 229 222 208 198 190 196 199 200 195 207 208 207 217
Height
1501 1501 1502 1504 1508 1520 1525 1521 1518 1517 1517 1518 1517 1517 1519 1521 1524 1528 1524 1520 1520 1520 1519 1517 1517 1517 1517 1516 1516 1516 1515 1515 1515 1515 1515 1515 1515 1515 1515 1515 1515 1516 1517 1517 1518 1518 1519 1519 1519
1502 1502 1504 1505 1517 1532 1529 1521 1519 1517 1518 1518 1518 1519 1520 1521 1522 1523 1522 1521 1521 1520 1520 1519 1518 1517 1517 1517 1517 1516 1516 1516 1516 1516 1516 1516 1516 1516 1516 1516 1516 1517 1517 1518 1518 1519 1519 1520 1520
1503 1503 1505 1510 1522 1530 1527 1520 1518 1518 1518 1518 1519 1520 1521 1523 1523 1523 1523 1523 1522 1522 1521 1520 1519 1518 1518 1518 1518 1517 1517 1517 1517 1517 1517 1517 1517 1517 1517 1517 1517 1517 1518 1518 1519 1519 1519 1520 1520
1504 1506 1508 1517 1524 1523 1521 1519 1518 1518 1519 1519 1520 1522 1523 1524 1524 1524 1524 1524 1523 1523 1522 1521 1521 1520 1520 1519 1519 1519 1519 1519 1518 1518 1518 1518 1518 1518 1518 1518 1518 1518 1519 1519 1519 1519 1520 1520 1521
1505 1507 1516 1525 1524 1521 1519 1518 1518 1519 1520 1521 1521 1523 1524 1525 1525 1525 1525 1525 1524 1524 1523 1523 1522 1521 1521 1521 1520 1520 1520 1520 1520 1519 1519 1519 1519 1519 1519 1519 1519 1519 1519 1519 1519 1519 1520 1520 1521
1507 1510 1526 1531 1527 1522 1520 1519 1519 1520 1521 1522 1523 1524 1526 1526 1526 1526 1526 1526 1526 1525 1525 1524 1524 1523 1523 1523 1522 1522 1522 1522 1521 1521 1521 1521 1521 1521 1520 1520 1520 1520 1520 1519 1519 1519 1520 1520 1521
1509 1516 1527 1529 1528 1524 1521 1520 1520 1521 1522 1523 1524 1525 1526 1527 1527 1527 1527 1527 1527 1527 1526 1526 1525 1525 1525 1524 1524 1524 1524 1523 1523 1523 1523 1523 1522 1522 1522 1521 1521 1521 1520 1519 1518 1518 1519 1520 1521
1509 1517 1526 1528 1528 1525 1521 1521 1522 1522 1523 1524 1524 1525 1526 1527 1527 1528 1528 1528 1528 1528 1528 1527 1527 1527 1527 1526 1526 1526 1526 1525 1525 1525 1525 1524 1524 1524 1523 1523 1522 1522 1520 1518 1516 1516 1518 1520 1520
1511 1522 1530 1527 1526 1524 1521 1522 1523 1523 1524 1524 1525 1525 1526 1527 1528 1528 1529 1529 1529 1529 1529 1529 1529 1529 1528 1528 1528 1528 1528 1527 1527 1527 1526 1526 1526 1525 1525 1524 1524 1523 1521 1518 1515 1515 1518 1520 1521
1513 1525 1524 1521 1521 1521 1521 1522 1523 1524 1524 1525 1525 1526 1527 1528 1528 1529 1529 1529 1530 1530 1530 1530 1530 1530 1530 1530 1530 1530 1529 1529 1529 1528 1528 1528 1527 1527 1526 1526 1525 1524 1522 1520 1519 1518 1520 1522 1522
1514 1520 1519 1519 1519 1520 1522 1523 1523 1524 1525 1525 1525 1526 1527 1528 1529 1529 1529 1530 1531 1531 1531 1531 1531 1532 1531 1531 1531 1531 1531 1531 1531 1530 1530 1530 1529 1529 1528 1527 1527 1526 1525 1524 1523 1522 1523 1523 1524
1516 1518 1518 1519 1520 1521 1522 1523 1524 1524 1525 1525 1525 1526 1527 1528 1529 1529 1530 1531 1532 1532 1532 1533 1533 1533 1533 1533 1533 1533 1533 1533 1532 1532 1532 1531 1531 1530 1530 1529 1529 1528 1527 1527 1526 1525 1525 1525 1526
1518 1519 1519 1520 1520 1521 1522 1523 1524 1524 1524 1525 1526 1527 1528 1528 1529 1530 1531 1531 1532 1532 1533 1533 1534 1534 1534 1534 1534 1534 1534 1534 1534 1533 1533 1533 1532 1532 1531 1531 1530 1530 1529 1529 1528 1528 1528 1528 1527
1519 1519 1520 1521 1521 1522 1523 1524 1524 1524 1525 1525 1526 1527 1528 1528 1529 1530 1531 1531 1532 1533 1533 1534 1534 1535 1535 1535 1535 1535 1535 1535 1535 1535 1534 1534 1533 1533 1533 1532 1532 1532 1531 1531 1530 1530 1530 1530 1529
1519 1522 1523 1522 1522 1523 1524 1527 1525 1524 1525 1525 1526 1527 1528 1529 1529 1530 1531 1531 1532 1533 1534 1534 1535 1535 1536 1536 1536 1536 1536 1536 1536 1536 1535 1535 1534 1534 1534 1534 1533 1533 1533 1532 1532 1531 1531 1531 1531
1521 1527 1532 1526 1523 1524 1528 1534 1525 1525 1525 1525 1526 1527 1528 1528 1529 1530 1531 1532 1532 1533 1534 1535 1535 1536 1536 1536 1537 1537 1537 1537 1537 1536 1536 1536 1536 1535 1535 1535 1534 1534 1534 1533 1533 1533 1533 1532 1532
1529 1535 1534 1529 1523 1524 1527 1530 1524 1524 1524 1525 1525 1526 1527 1528 1529 1530 1531 1532 1532 1533 1534 1535 1535 1536 1536 1537 1537 1538 1538 1538 1537 1537 1537 1537 1536 1536 1536 1535 1535 1535 1535 1534 1534 1534 1534 1534 1533
1534 1534 1533 1532 1525 1525 1528 1528 1523 1523 1523 1523 1524 1525 1526 1526 1527 1529 1530 1531 1532 1533 1534 1535 1535 1536 1537 1537 1538 1538 1538 1538 1538 1538 1537 1537 1537 1537 1537 1536 1536 1536 1536 1535 1535 1535 1535 1535 1535
1526 1530 1533 1529 1523 1526 1528 1527 1523 1521 1522 1522 1522 1523 1524 1525 1527 1528 1529 1530 1531 1532 1533 1534 1535 1536 1537 1537 1537 1538 1538 1538 1538 1538 1538 1538 1538 1537 1537 1537 1537 1537 1536 1536 1536 1536 1536 1536 1536
1525 1530 1531 1527 1522 1525 1528 1527 1522 1520 1520 1520 1520 1521 1522 1523 1525 1526 1527 1528 1530 1531 1532 1533 1534 1536 1536 1537 1538 1538 1539 1539 1539 1539 1538 1538 1538 1538 1538 1537 1537 1537 1537 1537 1537 1537 1537 1537 1537
1525 1528 1528 1528 1525 1525 1528 1530 1524 1520 1519 1519 1519 1520 1520 1522 1523 1525 1526 1528 1529 1530 1531 1533 1534 1535 1536 1537 1538 1538 1538 1539 1539 1539 1539 1538 1538 1538 1538 1538 1538 1537 1537 1538 1538 1538 1538 1538 1538
1527 1520 1522 1525 1532 1537 1533 1545 1528 1522 1520 1518 1518 1518 1519 1520 1522 1523 1525 1527 1528 1529 1531 1532 1534 1535 1536 1537 1538 1538 1538 1538 1538 1538 1538 1538 1538 1538 1538 1538 1538 1538 1538 1538 1538 1538 1538 1538 1538
1520 1517 1521 1525 1531 1538 1536 1543 1535 1524 1522 1518 1516 1516 1517 1519 1521 1522 1524 1526 1527 1529 1530 1532 1533 1534 1536 1536 1537 1538 1538 1538 1538 1538 1538 1538 1538 1538 1537 1537 1537 1537 1537 1538 1538 1538 1538 1538 1538
1516 1521 1526 1533 1538 1548 1539 1544 1539 1527 1520 1516 1514 1514 1516 1518 1520 1521 1523 1525 1526 1528 1529 1531 1532 1533 1535 1536 1537 1537 1537 1537 1538 1537 1537 1537 1537 1537 1537 1537 1537 1537 1537 1537 1537 1538 1538 1538 1538
1519 1532 1547 1548 1554 1551 1537 1540 1535 1517 1513 1512 1512 1512 1514 1516 1518 1520 1522 1523 1525 1526 1528 1529 1531 1532 1533 1535 1535 1536 1537 1537 1537 1537 1536 1536 1536 1536 1536 1536 1536 1536 1536 1536 1537 1537 1537 1537 1538
1521 1529 1547 1554 1556 1550 1538 1540 1526 1513 1510 1509 1510 1511 1513 1515 1517 1519 1521 1522 1524 1525 1527 1528 1529 1530 1532 1533 1534 1535 1535 1536 1536 1536 1535 1535 1535 1535 1535 1535 1535 1535 1535 1535 1536 1536 1536 1537 1537
1522 1528 1529 1542 1545 1550 1544 1534 1520 1511 1510 1509 1510 1511 1512 1514 1516 1518 1520 1521 1523 1524 1526 1527 1528 1529 1530 1531 1532 1533 1534 1534 1534 1534 1534 1534 1533 1533 1533 1533 1533 1533 1534 1534 1534 1534 1535 1535 1536
1516 1523 1535 1543 1551 1555 1546 1538 1530 1515 1512 1510 1510 1510 1511 1513 1515 1517 1518 1520 1522 1523 1524 1526 1527 1527 1529 1530 1531 1531 1532 1532 1532 1532 1532 1532 1532 1531 1531 1531 1532 1532 1532 1533 1533 1533 1533 1534 1534
1520 1525 1532 1541 1543 1553 1553 1541 1516 1513 1510 1510 1509 1509 1510 1512 1513 1515 1517 1519 1521 1522 1523 1524 1525 1526 1527 1527 1528 1529 1529 1530 1530 1530 1530 1530 1529 1529 1529 1529 1530 1530 1530 1531 1531 1531 1532 1532 1532
1514 1519 1528 1538 1542 1546 1549 1539 1509 1508 1507 1507 1507 1508 1509 1510 1512 1514 1515 1517 1518 1519 1520 1521 1522 1523 1524 1525 1526 1526 1527 1527 1528 1528 1528 1528 1527 1526 1527 1527 1527 1528 1528 1529 1529 1529 1530 1530 1530